Location: Mason Neck State Park
(38.6428°N, 77.1981°W)
Time: 20:07:38
(UTC-04:00)

ISS - Visible Passes

Search period start: 20 April 2014 00:00
Search period end: 30 April 2014 00:00
Orbit: 414 x 419 km, 51.6° (Epoch: 20 April)

Date Brightness Start Highest point End Pass type
(mag) Time Alt. Az. Time Alt. Az. Time Alt. Az.
20 Apr -2.6 21:29:37 10° NW 21:32:50 42° NNE 21:33:07 41° NE visible
21 Apr -1.8 20:41:16 10° NNW 20:44:12 27° NNE 20:46:33 13° E visible
21 Apr -1.0 22:17:52 10° WNW 22:19:27 22° W 22:19:27 22° W visible
22 Apr -3.2 21:29:05 10° NW 21:32:25 66° SW 21:32:52 57° S visible
23 Apr -3.2 20:40:25 10° NW 20:43:45 67° NE 20:46:17 16° ESE visible
23 Apr -0.3 22:18:46 10° WSW 22:19:11 11° WSW 22:19:11 11° WSW visible
24 Apr -1.3 21:28:53 10° W 21:31:30 21° SW 21:32:37 18° SSW visible
25 Apr -2.2 20:39:40 10° WNW 20:42:48 39° SW 20:45:56 10° SSE visible
27 Apr -0.5 20:39:40 10° W 20:41:21 13° SW 20:43:03 10° SSW visible
